Check out our new BloomSky Weather System.

Active alerts


No alerts


Thunder radar  blitzortung!


Rain radar more information rain snow radar


Visit our other weather sites:

Template documentation
and downloads

And another site



Weather Underground History page Text

Daily Summary for February 12, 2017 Units:  English    Metric   Both
« Previous Day
Next Day »
Daily Weekly Monthly Yearly Custom
  High: Low: Average:
Temperature: 87.3 °F 70.0 °F 76.1 °F
Dew Point: 71.1 °F 64.4 °F 68.1 °F
Humidity: 94 % 49 % 78 %
Wind Speed: 11.0 mph 0.0 mph 2.2 mph
Wind Gust: 13.0 mph - -
Wind:- - SSW
Pressure: 30.16 in 30.01 in -
Precipitation: 0.00 in    
Historical Graphs
 
 
Tabular Data for February 12, 2017
Time Temperature Dew Point Pressure Wind Wind Speed Wind Gust Humidity Rainfall Rate (Hourly)
00:04 70.7 °F 68.5 °F 30.02 in SE 4.0 mph 10.0 mph 93 % 0.00 in
00:09 70.7 °F 68.5 °F 30.02 in SSE 4.0 mph 8.0 mph 93 % 0.00 in
00:14 70.7 °F 68.5 °F 30.02 in South 3.0 mph 8.0 mph 93 % 0.00 in
00:19 70.7 °F 68.5 °F 30.02 in SSE 5.0 mph 8.0 mph 93 % 0.00 in
00:24 70.7 °F 68.5 °F 30.02 in South 4.0 mph 8.0 mph 93 % 0.00 in
00:29 70.5 °F 68.4 °F 30.02 in SSW 2.0 mph 10.0 mph 93 % 0.00 in
00:34 70.5 °F 68.4 °F 30.02 in SE 3.0 mph 10.0 mph 93 % 0.00 in
00:39 70.3 °F 68.5 °F 30.02 in SSE 4.0 mph 10.0 mph 94 % 0.00 in
00:44 70.3 °F 68.5 °F 30.02 in SE 3.0 mph 6.0 mph 94 % 0.00 in
00:49 70.3 °F 68.5 °F 30.02 in SSW 3.0 mph 6.0 mph 94 % 0.00 in
00:54 70.3 °F 68.5 °F 30.02 in SSE 4.0 mph 6.0 mph 94 % 0.00 in
00:59 70.3 °F 68.5 °F 30.02 in South 2.0 mph 9.0 mph 94 % 0.00 in
01:04 70.3 °F 68.5 °F 30.02 in SSE 5.0 mph 9.0 mph 94 % 0.00 in
01:09 70.3 °F 68.5 °F 30.02 in SSW 4.0 mph 10.0 mph 94 % 0.00 in
01:14 70.5 °F 68.7 °F 30.02 in East 3.0 mph 10.0 mph 94 % 0.00 in
01:19 70.3 °F 68.5 °F 30.02 in SE 4.0 mph 10.0 mph 94 % 0.00 in
01:25 70.3 °F 68.5 °F 30.02 in SSE 5.0 mph 9.0 mph 94 % 0.00 in
01:30 70.3 °F 68.5 °F 30.02 in SSE 4.0 mph 9.0 mph 94 % 0.00 in
01:35 70.3 °F 68.5 °F 30.02 in SSW 3.0 mph 9.0 mph 94 % 0.00 in
01:40 70.3 °F 68.5 °F 30.02 in SSE 2.0 mph 8.0 mph 94 % 0.00 in
01:45 70.3 °F 68.5 °F 30.02 in South 6.0 mph 9.0 mph 94 % 0.00 in
01:50 70.3 °F 68.5 °F 30.02 in SSE 2.0 mph 9.0 mph 94 % 0.00 in
01:55 70.3 °F 68.5 °F 30.02 in SSW 4.0 mph 9.0 mph 94 % 0.00 in
02:00 70.3 °F 68.5 °F 30.02 in SSE 7.0 mph 9.0 mph 94 % 0.00 in
02:05 70.3 °F 68.5 °F 30.02 in SE 2.0 mph 9.0 mph 94 % 0.00 in
02:10 70.2 °F 68.4 °F 30.02 in SW 3.0 mph 9.0 mph 94 % 0.00 in
02:15 70.2 °F 68.4 °F 30.02 in SSW 3.0 mph 8.0 mph 94 % 0.00 in
02:20 70.3 °F 68.5 °F 30.02 in South 1.0 mph 5.0 mph 94 % 0.00 in
02:25 70.3 °F 68.5 °F 30.02 in SSE 2.0 mph 7.0 mph 94 % 0.00 in
02:30 70.3 °F 68.2 °F 30.02 in SSE 4.0 mph 7.0 mph 93 % 0.00 in
02:35 70.3 °F 68.2 °F 30.02 in SSW 4.0 mph 8.0 mph 93 % 0.00 in
02:40 70.5 °F 68.4 °F 30.02 in SSE 3.0 mph 8.0 mph 93 % 0.00 in
02:45 70.5 °F 68.4 °F 30.02 in SSW 3.0 mph 9.0 mph 93 % 0.00 in
02:50 70.5 °F 68.4 °F 30.02 in SW 1.0 mph 9.0 mph 93 % 0.00 in
02:55 70.7 °F 68.5 °F 30.02 in SSW 3.0 mph 9.0 mph 93 % 0.00 in
03:00 70.9 °F 68.7 °F 30.02 in SSW 2.0 mph 6.0 mph 93 % 0.00 in
03:05 70.9 °F 68.7 °F 30.02 in SSW 2.0 mph 9.0 mph 93 % 0.00 in
03:10 71.1 °F 68.5 °F 30.02 in South 2.0 mph 9.0 mph 92 % 0.00 in
03:15 71.1 °F 68.5 °F 30.02 in SSE 4.0 mph 9.0 mph 92 % 0.00 in
03:20 71.1 °F 68.5 °F 30.02 in South 7.0 mph 7.0 mph 92 % 0.00 in
03:25 71.1 °F 68.5 °F 30.02 in SSE 2.0 mph 8.0 mph 92 % 0.00 in
03:30 71.2 °F 68.7 °F 30.02 in SSW 5.0 mph 8.0 mph 92 % 0.00 in
03:35 71.2 °F 68.7 °F 30.02 in South 3.0 mph 8.0 mph 92 % 0.00 in
03:40 71.2 °F 68.7 °F 30.02 in SSW 1.0 mph 8.0 mph 92 % 0.00 in
03:45 71.2 °F 68.7 °F 30.02 in South 2.0 mph 8.0 mph 92 % 0.00 in
03:50 71.2 °F 68.7 °F 30.02 in SSE 2.0 mph 6.0 mph 92 % 0.00 in
03:55 71.2 °F 68.7 °F 30.01 in SSW 3.0 mph 6.0 mph 92 % 0.00 in
04:01 71.2 °F 68.7 °F 30.02 in SSW 7.0 mph 7.0 mph 92 % 0.00 in
04:05 71.2 °F 68.7 °F 30.01 in SSW 2.0 mph 8.0 mph 92 % 0.00 in
04:11 71.2 °F 68.7 °F 30.01 in SSW 2.0 mph 8.0 mph 92 % 0.00 in
04:16 71.1 °F 68.5 °F 30.01 in South 3.0 mph 8.0 mph 92 % 0.00 in
04:21 71.2 °F 69.1 °F 30.01 in SSW 4.0 mph 6.0 mph 93 % 0.00 in
04:26 71.2 °F 69.1 °F 30.01 in SSW 4.0 mph 6.0 mph 93 % 0.00 in
04:31 71.2 °F 69.1 °F 30.01 in SSW 3.0 mph 8.0 mph 93 % 0.00 in
04:36 71.2 °F 69.1 °F 30.01 in South 1.0 mph 8.0 mph 93 % 0.00 in
04:41 71.1 °F 68.9 °F 30.01 in South 3.0 mph 8.0 mph 93 % 0.00 in
04:46 71.1 °F 68.9 °F 30.01 in SSW 5.0 mph 8.0 mph 93 % 0.00 in
04:51 71.1 °F 68.9 °F 30.01 in South 6.0 mph 9.0 mph 93 % 0.00 in
04:56 71.1 °F 68.5 °F 30.01 in SSE 6.0 mph 11.0 mph 92 % 0.00 in
05:01 71.1 °F 68.5 °F 30.01 in SSW 5.0 mph 12.0 mph 92 % 0.00 in
05:06 71.1 °F 68.4 °F 30.01 in South 5.0 mph 12.0 mph 91 % 0.00 in
05:11 71.1 °F 68.4 °F 30.02 in South 11.0 mph 12.0 mph 91 % 0.00 in
05:16 71.1 °F 68.0 °F 30.02 in SW 6.0 mph 13.0 mph 90 % 0.00 in
05:21 71.1 °F 68.0 °F 30.02 in SSW 7.0 mph 13.0 mph 90 % 0.00 in
05:26 71.1 °F 68.0 °F 30.02 in SSW 4.0 mph 13.0 mph 90 % 0.00 in
05:31 71.1 °F 68.0 °F 30.02 in South 7.0 mph 10.0 mph 90 % 0.00 in
05:36 71.1 °F 68.0 °F 30.02 in SSW 1.0 mph 9.0 mph 90 % 0.00 in
05:41 71.1 °F 68.0 °F 30.02 in SSE 5.0 mph 7.0 mph 90 % 0.00 in
05:46 71.1 °F 68.0 °F 30.02 in SSW 3.0 mph 10.0 mph 90 % 0.00 in
05:51 71.1 °F 68.0 °F 30.02 in SSW 4.0 mph 10.0 mph 90 % 0.00 in
05:56 71.1 °F 68.0 °F 30.02 in SSE 4.0 mph 11.0 mph 90 % 0.00 in
06:01 71.1 °F 68.0 °F 30.03 in South 5.0 mph 11.0 mph 90 % 0.00 in
06:06 71.1 °F 68.0 °F 30.03 in SSW 5.0 mph 11.0 mph 90 % 0.00 in
06:11 71.1 °F 68.0 °F 30.03 in SSW 4.0 mph 7.0 mph 90 % 0.00 in
06:16 71.1 °F 68.0 °F 30.03 in South 4.0 mph 7.0 mph 90 % 0.00 in
06:21 71.1 °F 68.0 °F 30.03 in Calm   7.0 mph 90 % 0.00 in
06:26 70.9 °F 67.8 °F 30.04 in SSW 2.0 mph 5.0 mph 90 % 0.00 in
06:31 70.9 °F 67.8 °F 30.04 in Calm   5.0 mph 90 % 0.00 in
06:36 70.9 °F 67.8 °F 30.04 in South 4.0 mph 4.0 mph 90 % 0.00 in
06:41 70.9 °F 67.8 °F 30.04 in SSE 2.0 mph 4.0 mph 90 % 0.00 in
06:46 71.1 °F 68.0 °F 30.04 in SSW 1.0 mph 5.0 mph 90 % 0.00 in
06:51 70.9 °F 67.8 °F 30.05 in SW 2.0 mph 5.0 mph 90 % 0.00 in
06:56 70.9 °F 68.2 °F 30.05 in South 1.0 mph 5.0 mph 91 % 0.00 in
07:01 70.9 °F 68.2 °F 30.05 in Calm   4.0 mph 91 % 0.00 in
07:06 70.9 °F 68.2 °F 30.05 in SW 1.0 mph 4.0 mph 91 % 0.00 in
07:11 70.7 °F 68.0 °F 30.06 in Calm   2.0 mph 91 % 0.00 in
07:16 70.7 °F 68.0 °F 30.06 in South 5.0 mph 5.0 mph 91 % 0.00 in
07:21 70.7 °F 68.0 °F 30.06 in Calm   5.0 mph 91 % 0.00 in
07:22 70.7 °F 68.0 °F 30.06 in Calm   5.0 mph 91 % 0.00 in
07:27 70.9 °F 68.2 °F 30.06 in Calm   5.0 mph 91 % 0.00 in
07:32 70.9 °F 68.2 °F 30.07 in SSE 1.0 mph 5.0 mph 91 % 0.00 in
07:37 70.9 °F 68.2 °F 30.07 in SSW 1.0 mph 4.0 mph 91 % 0.00 in
07:42 70.9 °F 68.2 °F 30.07 in South 1.0 mph 2.0 mph 91 % 0.00 in
07:47 71.1 °F 68.4 °F 30.07 in Calm   2.0 mph 91 % 0.00 in
07:52 71.1 °F 68.4 °F 30.07 in SSW 1.0 mph 2.0 mph 91 % 0.00 in
07:57 71.1 °F 68.4 °F 30.07 in South 1.0 mph 2.0 mph 91 % 0.00 in
08:02 71.2 °F 68.5 °F 30.07 in Calm   3.0 mph 91 % 0.00 in
08:07 71.4 °F 68.7 °F 30.08 in SSW 2.0 mph 3.0 mph 91 % 0.00 in
08:12 71.4 °F 68.7 °F 30.08 in SSE 2.0 mph 3.0 mph 91 % 0.00 in
08:17 71.6 °F 68.9 °F 30.08 in SSE 1.0 mph 4.0 mph 91 % 0.00 in
08:22 71.8 °F 69.1 °F 30.09 in SSW 4.0 mph 4.0 mph 91 % 0.00 in
08:27 72.0 °F 68.9 °F 30.09 in SSW 3.0 mph 5.0 mph 90 % 0.00 in
08:32 72.1 °F 69.1 °F 30.09 in SSW 3.0 mph 5.0 mph 90 % 0.00 in
08:37 72.3 °F 69.3 °F 30.09 in SSW 6.0 mph 7.0 mph 90 % 0.00 in
08:42 72.5 °F 69.1 °F 30.10 in South 2.0 mph 8.0 mph 89 % 0.00 in
08:47 72.7 °F 69.3 °F 30.10 in SSW 4.0 mph 8.0 mph 89 % 0.00 in
08:52 72.9 °F 69.4 °F 30.10 in South 3.0 mph 8.0 mph 89 % 0.00 in
08:57 73.0 °F 69.3 °F 30.10 in West 3.0 mph 7.0 mph 88 % 0.00 in
09:02 73.4 °F 70.0 °F 30.10 in SW 1.0 mph 7.0 mph 89 % 0.00 in
09:07 73.9 °F 70.2 °F 30.10 in Calm   7.0 mph 88 % 0.00 in
09:12 74.5 °F 70.3 °F 30.11 in SSW 3.0 mph 7.0 mph 87 % 0.00 in
09:17 74.7 °F 69.8 °F 30.11 in South 3.0 mph 7.0 mph 85 % 0.00 in
09:22 74.8 °F 70.0 °F 30.11 in South 3.0 mph 7.0 mph 85 % 0.00 in
09:27 74.8 °F 69.6 °F 30.12 in South 4.0 mph 7.0 mph 84 % 0.00 in
09:32 75.0 °F 69.8 °F 30.12 in SW 1.0 mph 8.0 mph 84 % 0.00 in
09:37 75.4 °F 70.2 °F 30.12 in SE 4.0 mph 8.0 mph 84 % 0.00 in
09:42 76.3 °F 70.7 °F 30.12 in WSW 3.0 mph 9.0 mph 83 % 0.00 in
09:47 76.8 °F 70.5 °F 30.12 in SW 2.0 mph 9.0 mph 81 % 0.00 in
09:52 77.4 °F 70.7 °F 30.12 in SSW 3.0 mph 9.0 mph 80 % 0.00 in
09:57 77.2 °F 69.8 °F 30.12 in SSW 2.0 mph 9.0 mph 78 % 0.00 in
10:02 76.6 °F 69.6 °F 30.13 in SW 1.0 mph 7.0 mph 79 % 0.00 in
10:07 76.5 °F 69.8 °F 30.14 in Calm   7.0 mph 80 % 0.00 in
10:13 76.6 °F 69.6 °F 30.14 in West 1.0 mph 7.0 mph 79 % 0.00 in
10:18 76.6 °F 69.6 °F 30.15 in Calm   6.0 mph 79 % 0.00 in
10:23 77.0 °F 70.0 °F 30.15 in SSW 5.0 mph 6.0 mph 79 % 0.00 in
10:28 77.4 °F 69.6 °F 30.15 in WNW 4.0 mph 6.0 mph 77 % 0.00 in
10:33 78.1 °F 70.3 °F 30.15 in WSW 3.0 mph 6.0 mph 77 % 0.00 in
10:38 78.1 °F 69.4 °F 30.16 in SE 1.0 mph 6.0 mph 75 % 0.00 in
10:43 78.1 °F 70.0 °F 30.15 in West 4.0 mph 6.0 mph 76 % 0.00 in
10:48 78.8 °F 70.5 °F 30.15 in SW 2.0 mph 6.0 mph 76 % 0.00 in
10:53 79.5 °F 70.2 °F 30.15 in SSW 1.0 mph 6.0 mph 73 % 0.00 in
10:58 79.5 °F 70.5 °F 30.15 in SSW 4.0 mph 6.0 mph 74 % 0.00 in
11:03 79.5 °F 70.2 °F 30.15 in SW 1.0 mph 6.0 mph 73 % 0.00 in
11:08 79.3 °F 69.4 °F 30.15 in West 1.0 mph 6.0 mph 72 % 0.00 in
11:13 79.5 °F 70.5 °F 30.14 in SSW 4.0 mph 7.0 mph 74 % 0.00 in
11:18 79.2 °F 69.3 °F 30.14 in SW 1.0 mph 7.0 mph 72 % 0.00 in
11:23 79.3 °F 70.0 °F 30.14 in SSW 3.0 mph 7.0 mph 73 % 0.00 in
11:28 80.1 °F 70.7 °F 30.14 in SSW 2.0 mph 7.0 mph 73 % 0.00 in
11:33 80.8 °F 70.9 °F 30.13 in WSW 3.0 mph 6.0 mph 72 % 0.00 in
11:38 81.3 °F 70.5 °F 30.14 in South 1.0 mph 6.0 mph 70 % 0.00 in
11:43 81.7 °F 69.6 °F 30.14 in SSE 3.0 mph 6.0 mph 67 % 0.00 in
11:48 82.0 °F 69.6 °F 30.13 in SSE 3.0 mph 10.0 mph 66 % 0.00 in
11:53 82.0 °F 69.1 °F 30.13 in SSE 3.0 mph 10.0 mph 65 % 0.00 in
11:58 81.9 °F 68.9 °F 30.13 in SSW 3.0 mph 11.0 mph 65 % 0.00 in
12:03 82.6 °F 70.5 °F 30.13 in WNW 2.0 mph 11.0 mph 67 % 0.00 in
12:08 83.7 °F 71.1 °F 30.12 in WSW 4.0 mph 11.0 mph 66 % 0.00 in
12:13 84.6 °F 70.5 °F 30.12 in SSE 3.0 mph 10.0 mph 63 % 0.00 in
12:18 84.4 °F 70.3 °F 30.12 in WNW 3.0 mph 6.0 mph 63 % 0.00 in
12:23 84.4 °F 70.0 °F 30.12 in ESE 3.0 mph 6.0 mph 62 % 0.00 in
12:28 83.5 °F 70.5 °F 30.12 in SSW 1.0 mph 7.0 mph 65 % 0.00 in
12:33 83.8 °F 69.4 °F 30.12 in SW 4.0 mph 7.0 mph 62 % 0.00 in
12:38 83.7 °F 68.7 °F 30.11 in WSW 5.0 mph 8.0 mph 61 % 0.00 in
12:43 83.8 °F 68.9 °F 30.11 in SSW 3.0 mph 9.0 mph 61 % 0.00 in
12:48 84.0 °F 68.7 °F 30.11 in Calm   9.0 mph 60 % 0.00 in
12:53 84.6 °F 69.1 °F 30.11 in SE 3.0 mph 9.0 mph 60 % 0.00 in
12:58 84.9 °F 68.5 °F 30.11 in South 3.0 mph 8.0 mph 58 % 0.00 in
13:03 84.9 °F 70.0 °F 30.10 in SW 4.0 mph 8.0 mph 61 % 0.00 in
13:08 84.6 °F 68.7 °F 30.10 in WSW 1.0 mph 9.0 mph 59 % 0.00 in
13:13 83.7 °F 68.7 °F 30.10 in SSW 2.0 mph 9.0 mph 61 % 0.00 in
13:18 83.8 °F 68.5 °F 30.09 in WNW 1.0 mph 9.0 mph 60 % 0.00 in
13:23 83.8 °F 68.0 °F 30.10 in WSW 1.0 mph 9.0 mph 59 % 0.00 in
13:28 84.0 °F 69.1 °F 30.09 in SW 6.0 mph 6.0 mph 61 % 0.00 in
13:33 83.5 °F 68.2 °F 30.09 in SW 1.0 mph 6.0 mph 60 % 0.00 in
13:38 83.1 °F 67.8 °F 30.09 in West 3.0 mph 6.0 mph 60 % 0.00 in
13:43 83.5 °F 67.6 °F 30.09 in Calm   7.0 mph 59 % 0.00 in
13:48 84.0 °F 67.6 °F 30.09 in West 2.0 mph 7.0 mph 58 % 0.00 in
13:53 83.7 °F 67.8 °F 30.09 in South 2.0 mph 7.0 mph 59 % 0.00 in
13:58 83.8 °F 68.5 °F 30.08 in SW 1.0 mph 6.0 mph 60 % 0.00 in
14:03 84.6 °F 67.6 °F 30.08 in SSW 5.0 mph 6.0 mph 57 % 0.00 in
14:08 85.3 °F 67.8 °F 30.08 in SW 5.0 mph 8.0 mph 56 % 0.00 in
14:14 85.3 °F 66.7 °F 30.08 in South 2.0 mph 8.0 mph 54 % 0.00 in
14:19 85.3 °F 66.7 °F 30.07 in West 2.0 mph 8.0 mph 54 % 0.00 in
14:24 85.5 °F 68.0 °F 30.07 in SW 6.0 mph 10.0 mph 56 % 0.00 in
14:29 85.5 °F 67.5 °F 30.07 in East 1.0 mph 10.0 mph 55 % 0.00 in
14:34 86.2 °F 67.1 °F 30.07 in WNW 3.0 mph 10.0 mph 53 % 0.00 in
14:38 86.2 °F 67.1 °F 30.07 in West 5.0 mph 8.0 mph 53 % 0.00 in
14:43 85.8 °F 67.8 °F 30.07 in SW 1.0 mph 6.0 mph 55 % 0.00 in
14:49 86.5 °F 68.0 °F 30.07 in South 1.0 mph 5.0 mph 54 % 0.00 in
14:54 86.9 °F 67.1 °F 30.07 in South 3.0 mph 5.0 mph 52 % 0.00 in
14:59 87.1 °F 67.3 °F 30.07 in SW 5.0 mph 6.0 mph 52 % 0.00 in
15:04 86.4 °F 66.0 °F 30.07 in West 2.0 mph 6.0 mph 51 % 0.00 in
15:09 86.4 °F 66.7 °F 30.07 in SW 1.0 mph 6.0 mph 52 % 0.00 in
15:14 86.2 °F 67.6 °F 30.06 in Calm   6.0 mph 54 % 0.00 in
15:19 86.4 °F 66.7 °F 30.06 in SW 2.0 mph 6.0 mph 52 % 0.00 in
15:24 86.5 °F 66.2 °F 30.06 in SW 4.0 mph 5.0 mph 51 % 0.00 in
15:29 86.5 °F 66.7 °F 30.06 in Calm   5.0 mph 52 % 0.00 in
15:34 87.1 °F 66.7 °F 30.06 in WSW 2.0 mph 5.0 mph 51 % 0.00 in
15:39 87.3 °F 66.9 °F 30.06 in Calm   5.0 mph 51 % 0.00 in
15:44 87.3 °F 65.8 °F 30.06 in Calm   5.0 mph 49 % 0.00 in
15:49 87.1 °F 66.2 °F 30.06 in SSE 1.0 mph 4.0 mph 50 % 0.00 in
15:54 87.1 °F 65.7 °F 30.06 in SSW 1.0 mph 3.0 mph 49 % 0.00 in
15:59 86.2 °F 65.8 °F 30.06 in Calm   5.0 mph 51 % 0.00 in
16:04 85.8 °F 65.7 °F 30.06 in NW 1.0 mph 5.0 mph 51 % 0.00 in
16:09 85.6 °F 65.5 °F 30.06 in NW 1.0 mph 5.0 mph 51 % 0.00 in
16:14 85.3 °F 65.7 °F 30.06 in SW 2.0 mph 3.0 mph 52 % 0.00 in
16:19 84.7 °F 65.7 °F 30.06 in Calm   3.0 mph 53 % 0.00 in
16:24 84.6 °F 64.9 °F 30.06 in Calm   3.0 mph 52 % 0.00 in
16:29 84.0 °F 64.6 °F 30.06 in Calm   3.0 mph 52 % 0.00 in
16:34 83.8 °F 64.9 °F 30.06 in NNW 1.0 mph 3.0 mph 53 % 0.00 in
16:39 83.7 °F 64.8 °F 30.06 in North 2.0 mph 2.0 mph 53 % 0.00 in
16:44 83.7 °F 64.8 °F 30.06 in Calm   2.0 mph 53 % 0.00 in
16:49 84.4 °F 65.8 °F 30.06 in Calm   2.0 mph 54 % 0.00 in
16:54 84.9 °F 64.8 °F 30.06 in Calm   2.0 mph 51 % 0.00 in
16:59 84.9 °F 64.8 °F 30.06 in NNW 2.0 mph 3.0 mph 51 % 0.00 in
17:04 84.6 °F 64.9 °F 30.06 in Calm   4.0 mph 52 % 0.00 in
17:09 84.6 °F 64.9 °F 30.06 in NW 2.0 mph 4.0 mph 52 % 0.00 in
17:14 84.0 °F 64.6 °F 30.07 in NW 1.0 mph 4.0 mph 52 % 0.00 in
17:19 83.8 °F 64.4 °F 30.07 in NNW 2.0 mph 4.0 mph 52 % 0.00 in
17:24 83.8 °F 64.9 °F 30.07 in NNW 1.0 mph 4.0 mph 53 % 0.00 in
17:29 83.7 °F 64.8 °F 30.07 in NNW 1.0 mph 4.0 mph 53 % 0.00 in
17:34 83.5 °F 64.6 °F 30.07 in NNW 1.0 mph 3.0 mph 53 % 0.00 in
17:39 83.3 °F 64.4 °F 30.07 in Calm   3.0 mph 53 % 0.00 in
17:44 83.1 °F 64.8 °F 30.07 in NNW 1.0 mph 3.0 mph 54 % 0.00 in
17:49 82.8 °F 64.4 °F 30.07 in Calm   3.0 mph 54 % 0.00 in
17:54 82.6 °F 64.8 °F 30.07 in Calm   2.0 mph 55 % 0.00 in
17:59 82.2 °F 64.4 °F 30.07 in Calm   2.0 mph 55 % 0.00 in
18:04 81.7 °F 64.4 °F 30.08 in Calm   2.0 mph 56 % 0.00 in
18:09 81.3 °F 64.6 °F 30.08 in Calm   2.0 mph 57 % 0.00 in
18:14 80.8 °F 64.6 °F 30.08 in Calm   1.0 mph 58 % 0.00 in
18:19 80.4 °F 64.8 °F 30.08 in Calm   1.0 mph 59 % 0.00 in
18:24 80.1 °F 64.9 °F 30.09 in Calm   1.0 mph 60 % 0.00 in
18:29 79.7 °F 65.5 °F 30.09 in Calm   2.0 mph 62 % 0.00 in
18:34 79.7 °F 67.8 °F 30.09 in East 1.0 mph 2.0 mph 67 % 0.00 in
18:39 79.5 °F 68.5 °F 30.09 in SE 4.0 mph 4.0 mph 69 % 0.00 in
18:44 79.3 °F 68.7 °F 30.09 in ESE 2.0 mph 8.0 mph 70 % 0.00 in
18:49 79.2 °F 68.9 °F 30.09 in SE 2.0 mph 8.0 mph 71 % 0.00 in
18:54 79.0 °F 69.3 °F 30.09 in SSE 2.0 mph 8.0 mph 72 % 0.00 in
18:59 78.4 °F 69.1 °F 30.09 in Calm   5.0 mph 73 % 0.00 in
19:04 78.3 °F 69.3 °F 30.09 in ESE 2.0 mph 3.0 mph 74 % 0.00 in
19:09 78.1 °F 69.4 °F 30.09 in East 2.0 mph 4.0 mph 75 % 0.00 in
19:14 77.7 °F 69.1 °F 30.09 in SE 1.0 mph 6.0 mph 75 % 0.00 in
19:20 77.5 °F 69.4 °F 30.09 in ESE 3.0 mph 6.0 mph 76 % 0.00 in
19:25 77.2 °F 69.4 °F 30.09 in SE 2.0 mph 6.0 mph 77 % 0.00 in
19:30 77.0 °F 69.6 °F 30.10 in SE 1.0 mph 6.0 mph 78 % 0.00 in
19:35 76.6 °F 69.3 °F 30.10 in SE 3.0 mph 6.0 mph 78 % 0.00 in
19:40 76.6 °F 69.6 °F 30.10 in ESE 3.0 mph 6.0 mph 79 % 0.00 in
19:45 76.5 °F 69.4 °F 30.10 in South 2.0 mph 6.0 mph 79 % 0.00 in
19:50 76.3 °F 69.3 °F 30.11 in ESE 2.0 mph 6.0 mph 79 % 0.00 in
19:55 76.3 °F 69.3 °F 30.11 in SE 1.0 mph 6.0 mph 79 % 0.00 in
20:00 75.9 °F 69.3 °F 30.11 in ESE 2.0 mph 6.0 mph 80 % 0.00 in
20:05 75.9 °F 69.3 °F 30.11 in SE 2.0 mph 6.0 mph 80 % 0.00 in
20:10 75.7 °F 69.1 °F 30.11 in SE 1.0 mph 6.0 mph 80 % 0.00 in
20:15 75.6 °F 68.9 °F 30.11 in South 1.0 mph 6.0 mph 80 % 0.00 in
20:20 75.4 °F 69.1 °F 30.11 in SE 3.0 mph 5.0 mph 81 % 0.00 in
20:25 75.2 °F 68.9 °F 30.11 in SSE 3.0 mph 5.0 mph 81 % 0.00 in
20:30 75.0 °F 68.7 °F 30.12 in SE 3.0 mph 5.0 mph 81 % 0.00 in
20:35 74.8 °F 68.9 °F 30.12 in ESE 3.0 mph 6.0 mph 82 % 0.00 in
20:40 74.7 °F 68.7 °F 30.12 in SSE 1.0 mph 6.0 mph 82 % 0.00 in
20:45 74.7 °F 68.7 °F 30.12 in SE 1.0 mph 6.0 mph 82 % 0.00 in
20:50 74.5 °F 68.9 °F 30.12 in SE 3.0 mph 5.0 mph 83 % 0.00 in
20:55 74.1 °F 68.5 °F 30.12 in SSE 4.0 mph 8.0 mph 83 % 0.00 in
21:00 74.1 °F 68.5 °F 30.12 in SE 6.0 mph 8.0 mph 83 % 0.00 in
21:05 73.9 °F 68.4 °F 30.12 in ESE 4.0 mph 8.0 mph 83 % 0.00 in
21:10 73.9 °F 68.7 °F 30.12 in SSE 3.0 mph 8.0 mph 84 % 0.00 in
21:15 73.8 °F 68.5 °F 30.12 in SE 3.0 mph 8.0 mph 84 % 0.00 in
21:20 73.6 °F 68.4 °F 30.12 in SSE 1.0 mph 6.0 mph 84 % 0.00 in
21:25 73.6 °F 68.4 °F 30.12 in SE 3.0 mph 6.0 mph 84 % 0.00 in
21:30 73.2 °F 68.2 °F 30.12 in SSE 1.0 mph 6.0 mph 84 % 0.00 in
21:35 73.0 °F 68.2 °F 30.13 in SSW 1.0 mph 6.0 mph 85 % 0.00 in
21:40 72.9 °F 68.4 °F 30.13 in Calm   4.0 mph 86 % 0.00 in
21:45 72.7 °F 68.2 °F 30.13 in Calm   4.0 mph 86 % 0.00 in
21:50 72.3 °F 67.8 °F 30.14 in Calm   2.0 mph 86 % 0.00 in
21:55 72.1 °F 67.6 °F 30.13 in Calm   2.0 mph 86 % 0.00 in
22:00 71.8 °F 67.6 °F 30.13 in Calm   2.0 mph 87 % 0.00 in
22:05 71.4 °F 67.3 °F 30.13 in Calm   1.0 mph 87 % 0.00 in
22:10 71.2 °F 67.1 °F 30.13 in Calm   1.0 mph 87 % 0.00 in
22:15 70.9 °F 67.1 °F 30.14 in Calm     88 % 0.00 in
22:21 70.5 °F 66.7 °F 30.14 in Calm     88 % 0.00 in
22:26 70.2 °F 66.7 °F 30.14 in Calm     89 % 0.00 in
22:31 70.2 °F 66.7 °F 30.14 in Calm     89 % 0.00 in
22:36 70.0 °F 66.9 °F 30.14 in Calm     90 % 0.00 in
22:41 70.0 °F 66.9 °F 30.14 in Calm     90 % 0.00 in
22:46 70.0 °F 66.9 °F 30.14 in Calm     90 % 0.00 in
22:51 70.2 °F 67.5 °F 30.14 in Calm   1.0 mph 91 % 0.00 in
22:56 70.2 °F 67.5 °F 30.14 in Calm   1.0 mph 91 % 0.00 in
23:01 70.2 °F 67.5 °F 30.14 in Calm   1.0 mph 91 % 0.00 in
23:06 70.2 °F 67.5 °F 30.14 in Calm   1.0 mph 91 % 0.00 in
23:11 70.2 °F 67.5 °F 30.14 in Calm     91 % 0.00 in
23:16 70.2 °F 67.5 °F 30.14 in Calm     91 % 0.00 in
23:21 70.2 °F 67.5 °F 30.14 in Calm     91 % 0.00 in
23:26 70.2 °F 67.5 °F 30.14 in Calm     91 % 0.00 in
23:31 70.0 °F 67.3 °F 30.14 in Calm     91 % 0.00 in
23:36 70.0 °F 67.3 °F 30.14 in Calm     91 % 0.00 in
23:41 70.0 °F 67.3 °F 30.14 in Calm     91 % 0.00 in
23:46 70.0 °F 67.3 °F 30.14 in Calm     91 % 0.00 in
23:51 70.2 °F 67.5 °F 30.14 in Calm   1.0 mph 91 % 0.00 in
23:56 70.2 °F 67.5 °F 30.14 in Calm   1.0 mph 91 % 0.00 in
Spring, Texas: Villages of Bridgestone
Compliments of Weather Underground - 2.75 mb

Script developed by  Jim McMurry - jmcmurry@mwt.net Adapted for the template by  Wim van der Kuil - Leuven-Template.eu

You find our weather info also at:

UK Metoffice

WeatherCloud

Weather Underground

Mid-South Weather Network

AWEKAS

Citizen Weather Observer Program (CWOP)

HAMweather, WeatherForYou, PWS Weather

Equipment we use:

Weather-station
Davis Vantage Vue

Weather-program
Meteohub

Weather-server
Debian 7.9 x86 (Guest)

Provider
DreamHost

Davis Vantage Vue

Meteohub

Debian 7.9 x86 (Guest)

DreamHost